| time (UTC) | temp C | wind direction | speed KPH | gust KPH | rain 1hr cm | rain 24hr cm | rain mn cm | humidity % | barometer mb |
| 20260507221527 | 15 | 238 | 1.6 | 17.7 | 0.00 | 0.33 | 0.00 | 40 | 1005.3 |
| 20260507221007 | 15 | 244 | 1.6 | 17.7 | 0.00 | 0.33 | 0.00 | 39 | 1005.2 |
| 20260507220508 | 15 | 275 | 3.2 | 12.9 | 0.00 | 0.33 | 0.00 | 37 | 1005.3 |
| 20260507220021 | 15 | 259 | 6.4 | 12.9 | 0.00 | 0.33 | 0.00 | 36 | 1005.2 |
| 20260507215508 | 15 | 262 | 3.2 | 11.3 | 0.00 | 0.33 | 0.00 | 40 | 1005.2 |
| 20260507215008 | 15 | 277 | 3.2 | 16.1 | 0.00 | 0.33 | 0.00 | 38 | 1005.2 |
| 20260507214518 | 15 | 238 | 4.8 | 16.1 | 0.00 | 0.33 | 0.00 | 37 | 1005.2 |
| 20260507214008 | 15 | 274 | 3.2 | 14.5 | 0.00 | 0.33 | 0.00 | 41 | 1005.1 |
| 20260507213510 | 15 | 166 | 3.2 | 9.7 | 0.00 | 0.33 | 0.00 | 38 | 1005.2 |
| 20260507213027 | 15 | 281 | 3.2 | 9.7 | 0.00 | 0.33 | 0.00 | 38 | 1005.1 |
| 20260507212507 | 15 | 321 | 3.2 | 14.5 | 0.00 | 0.33 | 0.00 | 37 | 1005.2 |
| 20260507212011 | 15 | 237 | 4.8 | 14.5 | 0.00 | 0.33 | 0.00 | 40 | 1005.3 |
| 20260507211520 | 15 | 296 | 3.2 | 19.3 | 0.00 | 0.33 | 0.00 | 37 | 1005.2 |
| 20260507211008 | 15 | 333 | 6.4 | 19.3 | 0.00 | 0.33 | 0.00 | 35 | 1005.3 |
| 20260507210507 | 15 | 20 | 4.8 | 12.9 | 0.00 | 0.33 | 0.00 | 38 | 1005.1 |
| 20260507210025 | 15 | 258 | 3.2 | 12.9 | 0.00 | 0.33 | 0.00 | 39 | 1005.1 |
| 20260507205510 | 15 | 290 | 3.2 | 14.5 | 0.00 | 0.33 | 0.00 | 42 | 1005.0 |
| 20260507205007 | 14 | 294 | 1.6 | 14.5 | 0.00 | 0.33 | 0.00 | 41 | 1005.0 |
| 20260507204521 | 14 | 19 | 4.8 | 16.1 | 0.00 | 0.33 | 0.00 | 42 | 1005.1 |
| 20260507204007 | 15 | 281 | 3.2 | 17.7 | 0.00 | 0.36 | 0.00 | 41 | 1005.0 |
| 20260507203509 | 15 | 315 | 6.4 | 17.7 | 0.00 | 0.36 | 0.00 | 38 | 1005.0 |
| 20260507203018 | 15 | 281 | 3.2 | 16.1 | 0.00 | 0.36 | 0.00 | 36 | 1005.0 |
| 20260507202511 | 15 | 205 | 4.8 | 16.1 | 0.00 | 0.38 | 0.00 | 37 | 1005.0 |
| 20260507202011 | 15 | 314 | 4.8 | 12.9 | 0.00 | 0.41 | 0.00 | 37 | 1005.1 |
| 20260507201520 | 15 | 282 | 4.8 | 16.1 | 0.00 | 0.41 | 0.00 | 39 | 1005.0 |
| 20260507201008 | 15 | 206 | 4.8 | 17.7 | 0.00 | 0.41 | 0.00 | 36 | 1005.1 |
| 20260507200507 | 15 | 241 | 6.4 | 17.7 | 0.00 | 0.43 | 0.00 | 37 | 1005.1 |
| 20260507200024 | 15 | 225 | 3.2 | 12.9 | 0.00 | 0.46 | 0.00 | 41 | 1005.1 |
| 20260507195507 | 15 | 298 | 4.8 | 16.1 | 0.00 | 0.46 | 0.00 | 39 | 1005.2 |
| 20260507195011 | 15 | 316 | 6.4 | 16.1 | 0.00 | 0.48 | 0.00 | 38 | 1005.1 |
| 20260507194532 | 15 | 169 | 3.2 | 9.7 | 0.00 | 0.48 | 0.00 | 39 | 1005.1 |
| 20260507194008 | 15 | 319 | 3.2 | 11.3 | 0.00 | 0.48 | 0.00 | 38 | 1005.3 |
| 20260507193511 | 14 | 242 | 1.6 | 16.1 | 0.00 | 0.48 | 0.00 | 42 | 1005.5 |
| 20260507193024 | 15 | 171 | 6.4 | 16.1 | 0.00 | 0.48 | 0.00 | 40 | 1005.5 |
| 20260507192507 | 15 | 233 | 3.2 | 16.1 | 0.00 | 0.48 | 0.00 | 40 | 1005.4 |
| 20260507192008 | 15 | 196 | 3.2 | 16.1 | 0.00 | 0.48 | 0.00 | 40 | 1005.5 |
| 20260507191524 | 15 | 45 | 3.2 | 14.5 | 0.00 | 0.51 | 0.00 | 40 | 1005.5 |
| 20260507191007 | 15 | 248 | 4.8 | 19.3 | 0.00 | 0.51 | 0.00 | 41 | 1005.5 |
| 20260507190506 | 14 | 193 | 6.4 | 19.3 | 0.00 | 0.51 | 0.00 | 43 | 1005.7 |
| 20260507190013 | 13 | 255 | 3.2 | 12.9 | 0.00 | 0.51 | 0.00 | 43 | 1005.7 |
| 20260507185503 | 13 | 323 | 4.8 | 17.7 | 0.00 | 0.51 | 0.00 | 42 | 1005.9 |
| 20260507185003 | 13 | 333 | 6.4 | 17.7 | 0.00 | 0.53 | 0.00 | 41 | 1005.9 |
| 20260507184510 | 13 | 292 | 3.2 | 14.5 | 0.00 | 0.56 | 0.00 | 42 | 1006.0 |
| 20260507184008 | 14 | 320 | 4.8 | 12.9 | 0.00 | 0.56 | 0.00 | 42 | 1006.0 |
| 20260507183503 | 14 | 296 | 4.8 | 12.9 | 0.00 | 0.58 | 0.00 | 40 | 1005.9 |
| 20260507183003 | 14 | 279 | 4.8 | 19.3 | 0.00 | 0.61 | 0.00 | 43 | 1005.9 |
| 20260507182503 | 13 | 212 | 1.6 | 19.3 | 0.00 | 0.64 | 0.00 | 48 | 1006.0 |
| 20260507182006 | 13 | 161 | 3.2 | 16.1 | 0.00 | 0.66 | 0.00 | 44 | 1005.9 |
| 20260507181503 | 13 | 9 | 8.0 | 19.3 | 0.00 | 0.69 | 0.00 | 44 | 1006.0 |
| 20260507181005 | 14 | 299 | 3.2 | 19.3 | 0.00 | 0.71 | 0.00 | 46 | 1006.0 |
| 20260507180503 | 14 | 305 | 3.2 | 14.5 | 0.00 | 0.74 | 0.00 | 45 | 1006.0 |
| 20260507180005 | 14 | 286 | 1.6 | 14.5 | 0.00 | 0.76 | 0.00 | 47 | 1006.0 |
| 20260507175503 | 15 | 325 | 4.8 | 14.5 | 0.00 | 0.79 | 0.00 | 45 | 1006.0 |
| 20260507175004 | 15 | 271 | 3.2 | 14.5 | 0.00 | 0.79 | 0.00 | 47 | 1006.0 |
| 20260507174513 | 15 | 292 | 4.8 | 14.5 | 0.00 | 0.81 | 0.00 | 47 | 1005.9 |
| 20260507174003 | 15 | 127 | 3.2 | 20.9 | 0.00 | 0.84 | 0.00 | 43 | 1005.8 |
| 20260507173506 | 15 | 292 | 6.4 | 20.9 | 0.00 | 0.84 | 0.00 | 45 | 1006.0 |
| 20260507173034 | 15 | 47 | 4.8 | 16.1 | 0.00 | 0.86 | 0.00 | 41 | 1006.0 |
| 20260507172508 | 15 | 225 | 3.2 | 16.1 | 0.00 | 0.86 | 0.00 | 46 | 1006.0 |
| 20260507172004 | 15 | 251 | 4.8 | 16.1 | 0.00 | 0.86 | 0.00 | 48 | 1006.0 |
| 20260507171503 | 15 | 325 | 3.2 | 11.3 | 0.00 | 0.86 | 0.00 | 48 | 1006.2 |
| 20260507171004 | 15 | 298 | 3.2 | 14.5 | 0.00 | 0.86 | 0.00 | 49 | 1006.2 |
| 20260507170504 | 15 | 5 | 4.8 | 14.5 | 0.00 | 0.86 | 0.00 | 43 | 1006.2 |
| 20260507170008 | 15 | 284 | 6.4 | 12.9 | 0.00 | 0.86 | 0.00 | 52 | 1006.4 |
| 20260507165503 | 15 | 303 | 4.8 | 16.1 | 0.00 | 0.86 | 0.00 | 46 | 1006.3 |
| 20260507165004 | 15 | 286 | 3.2 | 16.1 | 0.00 | 0.86 | 0.00 | 47 | 1006.3 |
| 20260507164514 | 15 | 245 | 6.4 | 16.1 | 0.00 | 0.86 | 0.00 | 45 | 1006.6 |
| 20260507164002 | 15 | 252 | 3.2 | 19.3 | 0.00 | 0.86 | 0.00 | 51 | 1006.4 |
| 20260507163504 | 14 | 245 | 4.8 | 19.3 | 0.00 | 0.86 | 0.00 | 51 | 1006.4 |
| 20260507163017 | 13 | 280 | 3.2 | 29.0 | 0.00 | 0.86 | 0.00 | 53 | 1006.6 |
| 20260507162506 | 14 | 248 | 6.4 | 29.0 | 0.00 | 0.86 | 0.00 | 50 | 1006.6 |
| 20260507162011 | 14 | 5 | 3.2 | 14.5 | 0.00 | 0.86 | 0.00 | 51 | 1006.7 |
| 20260507161518 | 14 | 190 | 3.2 | 14.5 | 0.00 | 0.86 | 0.00 | 55 | 1006.7 |
| 20260507161004 | 14 | 293 | 4.8 | 12.9 | 0.00 | 0.86 | 0.00 | 56 | 1006.6 |
| 20260507160507 | 13 | 184 | 3.2 | 22.5 | 0.00 | 0.86 | 0.00 | 52 | 1006.7 |
| 20260507160019 | 13 | 34 | 3.2 | 22.5 | 0.00 | 0.86 | 0.00 | 54 | 1006.8 |
| 20260507155505 | 13 | 306 | 6.4 | 17.7 | 0.00 | 0.86 | 0.00 | 54 | 1006.8 |
| 20260507155002 | 13 | 238 | 6.4 | 14.5 | 0.00 | 0.86 | 0.00 | 57 | 1006.9 |
| 20260507154508 | 13 | 242 | 3.2 | 12.9 | 0.00 | 0.86 | 0.00 | 65 | 1006.9 |
| 20260507154007 | 12 | 285 | 3.2 | 11.3 | 0.00 | 0.86 | 0.00 | 65 | 1007.1 |
| 20260507153507 | 12 | 125 | 3.2 | 12.9 | 0.00 | 0.86 | 0.00 | 64 | 1007.1 |
| 20260507153007 | 13 | 141 | 3.2 | 12.9 | 0.00 | 0.86 | 0.00 | 64 | 1007.1 |
| 20260507152511 | 13 | 273 | 3.2 | 16.1 | 0.00 | 0.86 | 0.00 | 67 | 1007.1 |
| 20260507152007 | 13 | 316 | 3.2 | 16.1 | 0.00 | 0.86 | 0.00 | 66 | 1007.3 |
| 20260507151506 | 12 | 300 | 4.8 | 12.9 | 0.00 | 0.86 | 0.00 | 66 | 1007.4 |
| 20260507151004 | 12 | 299 | 3.2 | 17.7 | 0.00 | 0.86 | 0.00 | 68 | 1007.4 |
| 20260507150508 | 12 | 223 | 3.2 | 17.7 | 0.00 | 0.86 | 0.00 | 67 | 1007.3 |
| 20260507150020 | 12 | 236 | 1.6 | 6.4 | 0.00 | 0.86 | 0.00 | 68 | 1007.3 |
| 20260507145507 | 12 | 360 | 3.2 | 9.7 | 0.00 | 0.86 | 0.00 | 70 | 1007.3 |
| 20260507145004 | 12 | 76 | 3.2 | 11.3 | 0.00 | 0.86 | 0.00 | 66 | 1007.4 |
| 20260507144532 | 12 | 307 | 3.2 | 11.3 | 0.00 | 0.86 | 0.00 | 67 | 1007.4 |
| 20260507144005 | 12 | 234 | 3.2 | 11.3 | 0.00 | 0.86 | 0.00 | 66 | 1007.3 |
| 20260507143506 | 12 | 324 | 1.6 | 12.9 | 0.00 | 0.86 | 0.00 | 68 | 1007.3 |
| 20260507143018 | 11 | 297 | 1.6 | 12.9 | 0.00 | 0.86 | 0.00 | 71 | 1007.4 |
| 20260507142506 | 11 | 270 | 1.6 | 11.3 | 0.00 | 0.86 | 0.00 | 72 | 1007.4 |
| 20260507142003 | 11 | 148 | 1.6 | 11.3 | 0.00 | 0.86 | 0.00 | 70 | 1007.4 |
| 20260507141518 | 12 | 49 | 3.2 | 11.3 | 0.00 | 0.86 | 0.00 | 70 | 1007.3 |
| 20260507141007 | 12 | 295 | 3.2 | 9.7 | 0.00 | 0.86 | 0.00 | 68 | 1007.3 |
| 20260507140509 | 11 | 238 | 1.6 | 11.3 | 0.00 | 0.86 | 0.00 | 71 | 1007.3 |
| 20260507140019 | 11 | 217 | 1.6 | 11.3 | 0.00 | 0.86 | 0.00 | 72 | 1007.5 |
| 20260507135504 | 11 | 247 | 1.6 | 12.9 | 0.00 | 0.86 | 0.00 | 72 | 1007.4 |
| 20260507135008 | 11 | 227 | 3.2 | 12.9 | 0.00 | 0.86 | 0.00 | 72 | 1007.4 |
| 20260507134524 | 11 | 277 | 3.2 | 16.1 | 0.00 | 0.86 | 0.00 | 72 | 1007.3 |
| 20260507134005 | 11 | 104 | 3.2 | 16.1 | 0.00 | 0.86 | 0.00 | 71 | 1007.4 |
| 20260507133509 | 11 | 290 | 4.8 | 17.7 | 0.00 | 0.86 | 0.00 | 71 | 1007.5 |
| 20260507133027 | 11 | 252 | 4.8 | 17.7 | 0.00 | 0.86 | 0.00 | 74 | 1007.6 |
| 20260507132505 | 11 | 248 | 1.6 | 12.9 | 0.00 | 0.86 | 0.00 | 72 | 1007.6 |
| 20260507132007 | 11 | 219 | 3.2 | 12.9 | 0.00 | 0.86 | 0.00 | 75 | 1007.6 |
| 20260507131518 | 11 | 169 | 3.2 | 17.7 | 0.00 | 0.86 | 0.00 | 72 | 1007.5 |
| 20260507131004 | 11 | 267 | 1.6 | 17.7 | 0.00 | 0.86 | 0.00 | 74 | 1007.6 |
| 20260507130510 | 10 | 249 | 1.6 | 14.5 | 0.00 | 0.86 | 0.00 | 75 | 1007.7 |
| 20260507130003 | 10 | 228 | 3.2 | 11.3 | 0.00 | 0.86 | 0.00 | 75 | 1007.7 |
| 20260507125504 | 10 | 116 | 3.2 | 9.7 | 0.00 | 0.86 | 0.00 | 75 | 1007.6 |
| 20260507125004 | 10 | 175 | 1.6 | 8.0 | 0.00 | 0.86 | 0.00 | 76 | 1007.6 |
| 20260507124509 | 10 | 279 | 1.6 | 11.3 | 0.00 | 0.86 | 0.00 | 73 | 1007.6 |
| 20260507124006 | 10 | 238 | 1.6 | 11.3 | 0.00 | 0.86 | 0.00 | 72 | 1007.6 |
| 20260507123504 | 10 | 302 | 0.0 | 6.4 | 0.00 | 0.86 | 0.00 | 76 | 1007.7 |
| 20260507123005 | 10 | 225 | 1.6 | 8.0 | 0.00 | 0.86 | 0.00 | 75 | 1007.6 |
| 20260507122503 | 10 | 311 | 0.0 | 14.5 | 0.00 | 0.86 | 0.00 | 74 | 1007.7 |
| 20260507122004 | 9 | 265 | 3.2 | 14.5 | 0.00 | 0.86 | 0.00 | 73 | 1007.8 |
| 20260507121513 | 9 | 355 | 3.2 | 14.5 | 0.00 | 0.86 | 0.00 | 75 | 1007.8 |
| 20260507121006 | 9 | 102 | 1.6 | 8.0 | 0.00 | 0.86 | 0.00 | 75 | 1007.7 |
| 20260507120503 | 8 | 244 | 3.2 | 8.0 | 0.00 | 0.86 | 0.00 | 78 | 1007.7 |
| 20260507120008 | 8 | 281 | 3.2 | 12.9 | 0.00 | 0.86 | 0.00 | 81 | 1007.7 |
| 20260507115506 | 8 | 126 | 3.2 | 12.9 | 0.00 | 0.86 | 0.00 | 82 | 1007.8 |
| 20260507115002 | 7 | 113 | 0.0 | 4.8 | 0.00 | 0.86 | 0.00 | 87 | 1007.7 |
| 20260507114503 | 7 | 120 | 0.0 | 3.2 | 0.00 | 0.86 | 0.00 | 87 | 1007.7 |
| 20260507114003 | 7 | 122 | 0.0 | 3.2 | 0.00 | 0.86 | 0.00 | 88 | 1007.7 |
| 20260507113503 | 7 | 94 | 0.0 | 3.2 | 0.00 | 0.86 | 0.00 | 89 | 1007.8 |
| 20260507113010 | 6 | 94 | 0.0 | 3.2 | 0.00 | 0.86 | 0.00 | 91 | 1007.7 |
| 20260507112504 | 6 | 94 | 0.0 | 1.6 | 0.00 | 0.86 | 0.00 | 92 | 1007.9 |
| 20260507112004 | 6 | 94 | 0.0 | 1.6 | 0.00 | 0.86 | 0.00 | 93 | 1007.8 |
| 20260507111510 | 6 | 94 | 0.0 | 3.2 | 0.00 | 0.86 | 0.00 | 93 | 1007.8 |
| 20260507111003 | 6 | 94 | 0.0 | 3.2 | 0.00 | 0.86 | 0.00 | 94 | 1007.8 |
| 20260507110505 | 5 | 94 | 0.0 | 1.6 | 0.00 | 0.86 | 0.00 | 93 | 1007.7 |
| 20260507110015 | 5 | 94 | 0.0 | 1.6 | 0.00 | 0.86 | 0.00 | 93 | 1007.5 |
| 20260507105504 | 5 | 94 | 0.0 | 1.6 | 0.00 | 0.86 | 0.00 | 92 | 1007.5 |
| 20260507105002 | 5 | 94 | 0.0 | 3.2 | 0.00 | 0.86 | 0.00 | 93 | 1007.5 |
| 20260507104509 | 5 | 94 | 0.0 | 3.2 | 0.00 | 0.86 | 0.00 | 92 | 1007.5 |
| 20260507104010 | 5 | 94 | 0.0 | 3.2 | 0.00 | 0.86 | 0.00 | 92 | 1007.6 |
| 20260507103503 | 6 | 94 | 0.0 | 3.2 | 0.00 | 0.86 | 0.00 | 92 | 1007.6 |
| 20260507103002 | 6 | 94 | 0.0 | 3.2 | 0.00 | 0.86 | 0.00 | 92 | 1007.6 |
| 20260507102502 | 6 | 94 | 0.0 | 3.2 | 0.00 | 0.86 | 0.00 | 92 | 1007.4 |
| 20260507102003 | 6 | 94 | 0.0 | 3.2 | 0.00 | 0.86 | 0.00 | 92 | 1007.2 |
| 20260507101514 | 6 | 94 | 0.0 | 1.6 | 0.00 | 0.86 | 0.00 | 92 | 1007.4 |
| 20260507101005 | 6 | 94 | 0.0 | 3.2 | 0.00 | 0.86 | 0.00 | 92 | 1007.7 |
| 20260507100503 | 6 | 93 | 0.0 | 3.2 | 0.00 | 0.86 | 0.00 | 91 | 1007.6 |
| 20260507100013 | 6 | 93 | 0.0 | 1.6 | 0.00 | 0.86 | 0.00 | 91 | 1007.4 |
| 20260507095505 | 6 | 93 | 0.0 | 3.2 | 0.00 | 0.86 | 0.00 | 91 | 1007.5 |
| 20260507095007 | 6 | 93 | 0.0 | 3.2 | 0.00 | 0.86 | 0.00 | 91 | 1007.6 |
| 20260507094517 | 6 | 93 | 0.0 | 4.8 | 0.00 | 0.86 | 0.00 | 91 | 1007.8 |
| 20260507094003 | 6 | 93 | 1.6 | 4.8 | 0.00 | 0.86 | 0.00 | 91 | 1007.4 |
| 20260507093506 | 6 | 350 | 0.0 | 3.2 | 0.00 | 0.86 | 0.00 | 91 | 1007.6 |
| 20260507093016 | 6 | 350 | 0.0 | 3.2 | 0.00 | 0.86 | 0.00 | 91 | 1007.3 |
| 20260507092513 | 6 | 229 | 0.0 | 4.8 | 0.00 | 0.86 | 0.00 | 92 | 1007.5 |
| 20260507092008 | 6 | 245 | 1.6 | 8.0 | 0.00 | 0.86 | 0.00 | 92 | 1007.4 |
| 20260507091506 | 6 | 285 | 0.0 | 9.7 | 0.00 | 0.86 | 0.00 | 92 | 1007.4 |
| 20260507091003 | 6 | 282 | 0.0 | 9.7 | 0.00 | 0.86 | 0.00 | 92 | 1007.6 |
| 20260507090502 | 6 | 11 | 0.0 | 3.2 | 0.00 | 0.86 | 0.00 | 92 | 1007.3 |
| 20260507090008 | 6 | 9 | 0.0 | 3.2 | 0.00 | 0.86 | 0.00 | 92 | 1006.9 |
| 20260507085503 | 6 | 5 | 0.0 | 4.8 | 0.00 | 0.86 | 0.00 | 92 | 1007.0 |
| 20260507085004 | 6 | 5 | 0.0 | 4.8 | 0.00 | 0.86 | 0.00 | 92 | 1006.9 |
| 20260507084508 | 7 | 193 | 0.0 | 4.8 | 0.00 | 0.86 | 0.00 | 92 | 1006.9 |
| 20260507084005 | 7 | 193 | 0.0 | 3.2 | 0.00 | 0.86 | 0.00 | 92 | 1006.8 |
| 20260507083508 | 7 | 142 | 0.0 | 3.2 | 0.00 | 0.86 | 0.00 | 92 | 1006.9 |
| 20260507083017 | 7 | 146 | 0.0 | 3.2 | 0.00 | 0.86 | 0.00 | 92 | 1007.0 |
| 20260507082505 | 7 | 143 | 0.0 | 3.2 | 0.00 | 0.86 | 0.00 | 92 | 1007.1 |
| 20260507082008 | 7 | 144 | 0.0 | 4.8 | 0.00 | 0.86 | 0.00 | 92 | 1006.9 |
| 20260507081533 | 7 | 142 | 1.6 | 8.0 | 0.00 | 0.86 | 0.00 | 92 | 1006.7 |
| 20260507081003 | 7 | 290 | 0.0 | 8.0 | 0.00 | 0.86 | 0.00 | 92 | 1007.0 |
| 20260507080503 | 7 | 296 | 0.0 | 3.2 | 0.00 | 0.86 | 0.00 | 93 | 1007.1 |
| 20260507080005 | 7 | 295 | 0.0 | 3.2 | 0.00 | 0.86 | 0.00 | 92 | 1007.1 |
| 20260507075503 | 7 | 310 | 0.0 | 3.2 | 0.00 | 0.86 | 0.00 | 92 | 1007.1 |
| 20260507075003 | 7 | 309 | 0.0 | 3.2 | 0.00 | 0.86 | 0.00 | 92 | 1007.1 |
| 20260507074510 | 7 | 309 | 0.0 | 3.2 | 0.00 | 0.86 | 0.00 | 92 | 1006.6 |
| 20260507074005 | 7 | 309 | 0.0 | 4.8 | 0.00 | 0.86 | 0.00 | 92 | 1006.6 |
| 20260507073509 | 7 | 309 | 1.6 | 4.8 | 0.00 | 0.86 | 0.00 | 92 | 1006.6 |
| 20260507073010 | 7 | 255 | 0.0 | 4.8 | 0.00 | 0.86 | 0.00 | 92 | 1006.7 |
| 20260507072506 | 7 | 255 | 1.6 | 4.8 | 0.00 | 0.86 | 0.00 | 92 | 1006.8 |
| 20260507072007 | 7 | 248 | 0.0 | 4.8 | 0.00 | 0.86 | 0.00 | 92 | 1006.7 |
| 20260507071508 | 7 | 241 | 0.0 | 3.2 | 0.00 | 0.86 | 0.00 | 92 | 1006.4 |
| 20260507071007 | 7 | 241 | 0.0 | 6.4 | 0.00 | 0.86 | 0.00 | 92 | 1006.6 |
| 20260507070508 | 7 | 241 | 1.6 | 6.4 | 0.00 | 0.86 | 0.00 | 92 | 1006.7 |
| 20260507070022 | 7 | 256 | 1.6 | 8.0 | 0.00 | 0.86 | 0.00 | 91 | 1006.6 |
| 20260507065505 | 7 | 278 | 3.2 | 8.0 | 0.00 | 0.86 | 0.00 | 92 | 1006.6 |
| 20260507065009 | 7 | 278 | 0.0 | 8.0 | 0.00 | 0.86 | 0.00 | 92 | 1006.6 |
| 20260507064522 | 7 | 326 | 1.6 | 8.0 | 0.00 | 0.86 | 0.00 | 92 | 1006.8 |
| 20260507064006 | 7 | 213 | 1.6 | 8.0 | 0.00 | 0.86 | 0.00 | 92 | 1006.6 |
| 20260507063507 | 7 | 257 | 3.2 | 8.0 | 0.00 | 0.86 | 0.00 | 93 | 1006.8 |
| 20260507063012 | 8 | 300 | 0.0 | 3.2 | 0.00 | 0.86 | 0.00 | 93 | 1006.6 |
| 20260507062505 | 8 | 300 | 0.0 | 6.4 | 0.00 | 0.86 | 0.00 | 93 | 1006.7 |
| 20260507062007 | 8 | 300 | 1.6 | 9.7 | 0.00 | 0.86 | 0.00 | 93 | 1006.7 |
| 20260507061516 | 8 | 296 | 3.2 | 9.7 | 0.00 | 0.86 | 0.00 | 93 | 1006.3 |
| 20260507061006 | 8 | 309 | 1.6 | 6.4 | 0.00 | 0.86 | 0.00 | 93 | 1006.5 |
| 20260507060506 | 8 | 267 | 1.6 | 6.4 | 0.00 | 0.86 | 0.00 | 93 | 1006.7 |
| 20260507060012 | 8 | 276 | 1.6 | 6.4 | 0.00 | 0.86 | 0.00 | 93 | 1006.7 |
| 20260507055507 | 8 | 286 | 0.0 | 4.8 | 0.00 | 0.86 | 0.00 | 93 | 1006.6 |
| 20260507055015 | 8 | 285 | 1.6 | 6.4 | 0.00 | 0.86 | 0.00 | 93 | 1006.8 |
| 20260507054526 | 8 | 297 | 1.6 | 6.4 | 0.00 | 0.86 | 0.00 | 93 | 1006.7 |
| 20260507054006 | 8 | 289 | 3.2 | 6.4 | 0.00 | 0.89 | 0.00 | 93 | 1006.8 |
| 20260507053507 | 8 | 185 | 0.0 | 3.2 | 0.00 | 0.89 | 0.00 | 93 | 1006.6 |
| 20260507053028 | 8 | 121 | 0.0 | 3.2 | 0.00 | 0.89 | 0.00 | 92 | 1006.5 |
| 20260507052506 | 8 | 315 | 0.0 | 3.2 | 0.00 | 0.89 | 0.00 | 92 | 1006.3 |
| 20260507052007 | 8 | 315 | 0.0 | 4.8 | 0.00 | 0.89 | 0.00 | 92 | 1006.3 |
| 20260507051514 | 8 | 117 | 0.0 | 4.8 | 0.00 | 0.89 | 0.00 | 92 | 1006.2 |
| 20260507051006 | 8 | 81 | 1.6 | 6.4 | 0.00 | 0.89 | 0.00 | 92 | 1006.4 |
| 20260507050505 | 8 | 101 | 0.0 | 6.4 | 0.00 | 0.89 | 0.00 | 92 | 1006.3 |
| 20260507050026 | 8 | 346 | 0.0 | 6.4 | 0.00 | 0.89 | 0.00 | 92 | 1006.1 |
| 20260507045508 | 8 | 266 | 0.0 | 9.7 | 0.00 | 0.89 | 0.00 | 92 | 1006.1 |
| 20260507045007 | 8 | 266 | 1.6 | 9.7 | 0.00 | 0.89 | 0.00 | 92 | 1006.0 |
| 20260507044520 | 8 | 263 | 1.6 | 22.5 | 0.00 | 0.89 | 0.00 | 92 | 1006.0 |
| 20260507044007 | 8 | 29 | 1.6 | 22.5 | 0.00 | 0.89 | 0.00 | 92 | 1006.3 |
| 20260507043507 | 8 | 285 | 3.2 | 9.7 | 0.00 | 0.89 | 0.00 | 92 | 1006.5 |
| 20260507043022 | 8 | 250 | 1.6 | 8.0 | 0.00 | 0.89 | 0.00 | 92 | 1006.3 |
| 20260507042511 | 9 | 288 | 1.6 | 9.7 | 0.00 | 0.89 | 0.00 | 92 | 1006.4 |
| 20260507042010 | 9 | 271 | 1.6 | 11.3 | 0.03 | 0.89 | 0.00 | 93 | 1006.4 |
| 20260507041528 | 9 | 328 | 1.6 | 11.3 | 0.05 | 0.89 | 0.00 | 93 | 1006.4 |
| 20260507041008 | 9 | 254 | 1.6 | 6.4 | 0.08 | 0.89 | 0.00 | 93 | 1006.2 |
| 20260507040506 | 10 | 248 | 1.6 | 9.7 | 0.08 | 0.89 | 0.00 | 93 | 1006.2 |
| 20260507040007 | 10 | 270 | 3.2 | 9.7 | 0.10 | 0.89 | 0.00 | 93 | 1006.2 |
| 20260507035508 | 10 | 101 | 1.6 | 9.7 | 0.13 | 0.89 | 0.89 | 93 | 1006.1 |
| 20260507035005 | 10 | 298 | 1.6 | 9.7 | 0.13 | 0.89 | 0.89 | 93 | 1006.0 |
| 20260507034503 | 10 | 300 | 1.6 | 6.4 | 0.13 | 0.89 | 0.89 | 93 | 1006.1 |
| 20260507034003 | 10 | 263 | 1.6 | 6.4 | 0.13 | 0.89 | 0.89 | 93 | 1006.2 |
| 20260507033502 | 10 | 249 | 1.6 | 3.2 | 0.13 | 0.89 | 0.89 | 93 | 1006.1 |
| 20260507033004 | 10 | 281 | 0.0 | 4.8 | 0.13 | 0.89 | 0.89 | 93 | 1006.0 |
| 20260507032504 | 10 | 284 | 1.6 | 6.4 | 0.13 | 0.89 | 0.89 | 92 | 1006.1 |
| 20260507032003 | 10 | 277 | 1.6 | 6.4 | 0.10 | 0.86 | 0.86 | 92 | 1006.4 |
| 20260507031507 | 11 | 256 | 0.0 | 4.8 | 0.08 | 0.84 | 0.84 | 92 | 1006.4 |
| 20260507031005 | 11 | 258 | 0.0 | 4.8 | 0.05 | 0.81 | 0.81 | 92 | 1006.3 |
| 20260507030504 | 11 | 274 | 1.6 | 9.7 | 0.08 | 0.81 | 0.81 | 92 | 1006.2 |
| 20260507030016 | 11 | 255 | 1.6 | 9.7 | 0.08 | 0.79 | 0.79 | 92 | 1006.2 |
| 20260507025508 | 11 | 301 | 3.2 | 8.0 | 0.08 | 0.76 | 0.76 | 92 | 1006.2 |
| 20260507025003 | 11 | 327 | 1.6 | 12.9 | 0.10 | 0.76 | 0.76 | 92 | 1006.2 |
| 20260507024515 | 12 | 259 | 1.6 | 12.9 | 0.13 | 0.76 | 0.76 | 92 | 1005.9 |
| 20260507024009 | 12 | 278 | 3.2 | 8.0 | 0.15 | 0.76 | 0.76 | 92 | 1005.7 |
| 20260507023502 | 12 | 263 | 1.6 | 8.0 | 0.20 | 0.76 | 0.76 | 92 | 1005.6 |
| 20260507023007 | 12 | 329 | 1.6 | 6.4 | 0.20 | 0.76 | 0.76 | 92 | 1005.6 |
| 20260507022504 | 12 | 252 | 3.2 | 11.3 | 0.20 | 0.76 | 0.76 | 92 | 1005.5 |
| 20260507022003 | 12 | 244 | 0.0 | 11.3 | 0.20 | 0.76 | 0.76 | 92 | 1005.4 |
| 20260507021504 | 12 | 71 | 1.6 | 8.0 | 0.20 | 0.76 | 0.76 | 92 | 1005.2 |
| 20260507021008 | 13 | 306 | 0.0 | 8.0 | 0.20 | 0.76 | 0.76 | 92 | 1005.1 |
| 20260507020504 | 13 | 306 | 0.0 | 8.0 | 0.18 | 0.74 | 0.74 | 92 | 1005.2 |
| 20260507020004 | 13 | 292 | 1.6 | 4.8 | 0.15 | 0.71 | 0.71 | 91 | 1005.2 |
| 20260507015504 | 13 | 223 | 1.6 | 4.8 | 0.13 | 0.69 | 0.69 | 91 | 1005.2 |
| 20260507015008 | 13 | 275 | 1.6 | 6.4 | 0.10 | 0.66 | 0.66 | 92 | 1005.1 |
| 20260507014516 | 14 | 240 | 0.0 | 6.4 | 0.08 | 0.64 | 0.64 | 93 | 1005.1 |
| 20260507014003 | 14 | 256 | 1.6 | 4.8 | 0.05 | 0.61 | 0.61 | 93 | 1004.9 |
| 20260507013507 | 14 | 125 | 0.0 | 3.2 | 0.00 | 0.56 | 0.56 | 92 | 1004.8 |
| 20260507013021 | 14 | 124 | 0.0 | 3.2 | 0.00 | 0.56 | 0.56 | 92 | 1004.8 |
| 20260507012507 | 14 | 122 | 0.0 | 3.2 | 0.00 | 0.56 | 0.56 | 92 | 1004.7 |
| 20260507012006 | 14 | 130 | 0.0 | 4.8 | 0.00 | 0.56 | 0.56 | 92 | 1004.7 |
| 20260507011508 | 14 | 280 | 0.0 | 6.4 | 0.00 | 0.56 | 0.56 | 92 | 1004.7 |
| 20260507011002 | 15 | 283 | 1.6 | 6.4 | 0.00 | 0.56 | 0.56 | 92 | 1004.7 |
| 20260507010503 | 15 | 40 | 1.6 | 4.8 | 0.00 | 0.56 | 0.56 | 92 | 1004.7 |
| 20260507010008 | 15 | 124 | 0.0 | 3.2 | 0.00 | 0.56 | 0.56 | 92 | 1004.7 |
| 20260507005506 | 15 | 124 | 0.0 | 3.2 | 0.00 | 0.56 | 0.56 | 92 | 1004.7 |
| 20260507005006 | 15 | 124 | 0.0 | 3.2 | 0.00 | 0.56 | 0.56 | 92 | 1004.8 |
| 20260507004509 | 15 | 136 | 0.0 | 3.2 | 0.00 | 0.56 | 0.56 | 92 | 1004.7 |
| 20260507004007 | 15 | 136 | 1.6 | 6.4 | 0.00 | 0.56 | 0.56 | 92 | 1004.7 |
| 20260507003508 | 15 | 55 | 1.6 | 6.4 | 0.00 | 0.56 | 0.56 | 92 | 1004.7 |
| 20260507003019 | 15 | 94 | 1.6 | 6.4 | 0.00 | 0.56 | 0.56 | 92 | 1004.7 |
| 20260507002503 | 15 | 335 | 0.0 | 4.8 | 0.00 | 0.56 | 0.56 | 92 | 1004.7 |
| 20260507002008 | 15 | 12 | 0.0 | 4.8 | 0.00 | 0.56 | 0.56 | 92 | 1004.8 |
| 20260507001548 | 15 | 12 | 1.6 | 4.8 | 0.00 | 0.56 | 0.56 | 92 | 1004.6 |
| 20260507001003 | 15 | 152 | 0.0 | 8.0 | 0.00 | 0.56 | 0.56 | 91 | 1004.6 |
| 20260507000507 | 15 | 155 | 0.0 | 8.0 | 0.00 | 0.56 | 0.56 | 91 | 1004.5 |
| 20260507000013 | 15 | 355 | 1.6 | 9.7 | 0.00 | 0.56 | 0.56 | 91 | 1004.4 |
| 20260506235504 | 15 | 129 | 0.0 | 9.7 | 0.00 | 0.56 | 0.56 | 91 | 1004.5 |
| 20260506235006 | 15 | 29 | 0.0 | 14.5 | 0.00 | 0.56 | 0.56 | 91 | 1004.4 |
| 20260506234511 | 15 | 97 | 3.2 | 14.5 | 0.00 | 0.56 | 0.56 | 91 | 1004.4 |
| 20260506234006 | 15 | 94 | 0.0 | 8.0 | 0.00 | 0.56 | 0.56 | 91 | 1004.5 |
| 20260506233507 | 15 | 78 | 1.6 | 8.0 | 0.00 | 0.56 | 0.56 | 91 | 1004.5 |
| 20260506233011 | 15 | 55 | 0.0 | 8.0 | 0.00 | 0.56 | 0.56 | 91 | 1004.5 |
| 20260506232508 | 15 | 63 | 1.6 | 6.4 | 0.00 | 0.56 | 0.56 | 91 | 1004.6 |
| 20260506232009 | 15 | 326 | 0.0 | 6.4 | 0.00 | 0.56 | 0.56 | 91 | 1004.5 |
| 20260506231509 | 15 | 68 | 1.6 | 6.4 | 0.00 | 0.56 | 0.56 | 91 | 1004.5 |
| 20260506231004 | 15 | 287 | 1.6 | 6.4 | 0.00 | 0.56 | 0.56 | 91 | 1004.4 |
| 20260506230511 | 15 | 5 | 1.6 | 6.4 | 0.00 | 0.56 | 0.56 | 91 | 1004.5 |
| 20260506230033 | 15 | 127 | 0.0 | 9.7 | 0.00 | 0.56 | 0.56 | 91 | 1004.5 |
| 20260506225503 | 15 | 360 | 3.2 | 9.7 | 0.00 | 0.56 | 0.56 | 91 | 1004.5 |
| 20260506225006 | 15 | 282 | 0.0 | 8.0 | 0.00 | 0.56 | 0.56 | 91 | 1004.5 |
| 20260506224510 | 15 | 360 | 0.0 | 8.0 | 0.00 | 0.56 | 0.56 | 91 | 1004.5 |
| 20260506224005 | 15 | 51 | 1.6 | 12.9 | 0.00 | 0.56 | 0.56 | 90 | 1004.6 |
| 20260506223506 | 15 | 75 | 4.8 | 12.9 | 0.00 | 0.56 | 0.56 | 91 | 1004.6 |
| 20260506223019 | 15 | 360 | 0.0 | 8.0 | 0.00 | 0.56 | 0.56 | 91 | 1004.7 |
| 20260506222510 | 15 | 98 | 3.2 | 11.3 | 0.00 | 0.56 | 0.56 | 91 | 1004.6 |
| 20260506222005 | 15 | 53 | 1.6 | 11.3 | 0.00 | 0.56 | 0.56 | 91 | 1004.7 |